Terminal Aerodrome Forecast
Issued by NWS

Home | Current Version | Previous Version | Text Only | Print | Product List | Glossary Off
Versions: 1 2 3 4 5 6 7 8 9 10 11 12 13 14 15 16

000
FTUS43 KICT 251100
TAFSLN
TAF
KSLN 251136Z 2512/2612 19005KT P6SM SKC
     FM251500 19012G18KT P6SM SKC
     FM260200 15008KT P6SM SCT250
     FM260600 09006KT P6SM BKN250=

USA.gov is the U.S. government's official web portal to all federal, state and local government web resources and services.